QPF
0.00 0.00 0.00 0.00 0.00 0.00 0.00 0.00 0.00 0.00 0.00 0.00 0.00 0.00 0.00 0.00 0.00 0.00 0.00 0.00 0.00 0.00 0.00 0.00 0.00 0.00 0.00 0.00 0.00 0.00 0.00 0.00 0.00 0.00 0.00 0.00 0.00 0.00 0.00 0.00 0.00 0.00 0.00 0.00
0.00 0.00 0.00 0.00 0.00 0.00 0.00 0.00 0.00 0.00 0.00 0.00 0.00 0.00 0.00 0.00 0.00 0.00 0.00 0.00 0.00 0.00 0.00 0.00 0.00 0.00 0.00 0.00 0.00 0.00 0.00 0.00 0.00 0.00 0.00 0.00 0.00 0.00 0.00 0.00 0.00 0.00 0.00 0.00
0.00 0.00 0.00 0.00 0.00 0.00 0.00 0.00 0.00 0.00 0.00 0.00 0.00 0.00 0.00 0.00 0.00 0.00 0.00 0.00 0.00 0.00 0.00 0.00 0.00 0.00 0.00 0.00 0.00 0.00 0.00 0.00 0.00 0.00 0.00 0.00 0.00 0.00 0.00 0.00 0.00 0.00 0.00 0.00
0.00 0.00 0.00 0.00 0.00 0.00 0.00 0.00 0.00 0.00 0.00 0.00 0.00 0.00 0.00 0.00 0.00 0.00 0.00 0.00 0.00 0.00 0.00 0.00 0.00 0.00 0.00 0.00 0.00 0.00 0.00 0.00 0.00 0.00 0.00 0.00 0.00 0.00 0.00 0.00 0.00 0.00 0.00 0.00
0.00 0.00 0.00 0.00 0.00 0.00 0.00 0.00 0.00 0.00 0.00 0.00 0.00 0.00 0.00 0.00 0.00 0.00 0.00 0.00 0.00 0.00 0.00 0.00 0.00 0.00 0.00 0.00 0.00 0.00 0.00 0.00 0.00 0.00 0.00 0.00 0.00 0.00 0.00 0.00 0.00 0.00 0.00 0.00
0.00 0.00 0.00 0.00 0.00 0.00 0.00 0.00 0.00 0.00 0.00 0.00 0.00 0.00 0.00 0.00 0.00 0.00 0.00 0.00 0.00 0.00 0.00 0.00 0.00 0.00 0.00 0.00 0.00 0.00 0.00 0.00 0.00 0.00 0.00 0.00 0.00 0.00 0.00 0.00 0.00 0.00 0.00 0.00
0.00 0.00 0.00 0.00 0.00 0.00 0.00 0.00 0.00 0.00 0.00 0.00 0.00 0.00 0.00 0.00 0.00 0.00 0.00 0.00 0.00 0.00 0.00 0.00 0.00 0.00 0.00 0.00 0.00 0.00 0.00 0.00 0.00 0.00 0.00 0.00 0.00 0.00 0.00 0.00 0.00 0.00 0.00 0.00
0.00 0.00 0.00 0.00 0.00 0.00 0.00 0.00 0.00 0.00 0.00 0.00 0.00 0.00 0.00 0.00 0.00 0.00 0.00 0.00 0.00 0.00 0.00 0.00 0.00 0.00 0.00 0.00 0.00 0.00 0.00 0.00 0.00 0.00 0.00 0.00 0.00 0.00 0.00 0.00 0.00 0.00 0.00 0.00
0.00 0.00 0.00 0.00 0.00 0.00 0.00 0.00 0.00 0.00 0.00 0.00 0.00 0.00 0.00 0.00 0.00 0.00 0.00 0.00 0.00 0.00 0.00 0.00 0.00 0.00 0.00 0.00 0.00 0.00 0.00 0.00 0.00 0.00 0.00 0.00 0.00 0.00 0.00 0.00 0.00 0.00 0.00 0.00
0.00 0.00 0.00 0.00 0.00 0.00 0.00 0.00 0.00 0.00 0.00 0.00 0.00 0.00 0.00 0.00 0.00 0.00 0.00 0.00 0.00 0.00 0.00 0.00 0.00 0.00 0.00 0.00 0.00 0.00 0.00 0.00 0.00 0.00 0.00 0.00 0.00 0.00 0.00 0.00 0.00 0.00 0.01 0.01
0.00 0.00 0.00 0.00 0.00 0.00 0.00 0.00 0.00 0.00 0.00 0.00 0.00 0.00 0.00 0.00 0.00 0.00 0.00 0.00 0.00 0.00 0.00 0.00 0.00 0.00 0.00 0.00 0.00 0.00 0.00 0.00 0.00 0.00 0.00 0.00 0.00 0.00 0.00 0.00 0.00 0.01 0.02 0.02
0.00 0.00 0.00 0.00 0.00 0.00 0.00 0.00 0.00 0.00 0.00 0.00 0.00 0.00 0.00 0.00 0.00 0.00 0.00 0.00 0.00 0.00 0.00 0.00 0.00 0.00 0.00 0.00 0.00 0.00 0.00 0.00 0.00 0.00 0.00 0.00 0.00 0.00 0.00 0.00 0.00 0.00 0.01 0.01
0.00 0.00 0.00 0.00 0.00 0.00 0.00 0.00 0.00 0.00 0.00 0.00 0.00 0.00 0.00 0.00 0.00 0.00 0.00 0.00 0.00 0.00 0.00 0.00 0.00 0.00 0.00 0.00 0.00 0.00 0.00 0.00 0.00 0.00 0.00 0.00 0.00 0.00 0.00 0.00 0.00 0.00 0.00 0.00
0.00 0.00 0.00 0.00 0.00 0.00 0.00 0.00 0.00 0.00 0.00 0.00 0.00 0.00 0.00 0.00 0.00 0.00 0.00 0.00 0.00 0.00 0.00 0.00 0.00 0.00 0.00 0.00 0.00 0.00 0.00 0.00 0.00 0.00 0.00 0.00 0.00 0.00 0.01 0.01 0.01 0.00 0.00 0.00
0.00 0.00 0.00 0.00 0.00 0.00 0.00 0.00 0.00 0.00 0.00 0.00 0.00 0.00 0.00 0.00 0.00 0.00 0.00 0.00 0.00 0.00 0.00 0.00 0.00 0.00 0.00 0.00 0.00 0.00 0.00 0.00 0.00 0.00 0.00 0.00 0.00 0.00 0.01 0.01 0.01 0.01 0.00 0.00
0.00 0.00 0.00 0.00 0.00 0.00 0.00 0.00 0.00 0.00 0.00 0.00 0.00 0.00 0.00 0.00 0.00 0.00 0.00 0.00 0.00 0.00 0.00 0.00 0.00 0.00 0.00 0.00 0.00 0.00 0.00 0.00 0.00 0.00 0.00 0.00 0.00 0.01 0.01 0.01 0.01 0.01 0.01 0.00
0.00 0.00 0.00 0.00 0.00 0.00 0.00 0.00 0.00 0.00 0.00 0.00 0.00 0.00 0.00 0.00 0.00 0.00 0.00 0.00 0.00 0.00 0.00 0.00 0.00 0.00 0.00 0.00 0.00 0.00 0.00 0.00 0.00 0.00 0.00 0.00 0.01 0.01 0.01 0.01 0.02 0.01 0.01 0.00
0.00 0.00 0.00 0.00 0.00 0.00 0.00 0.00 0.00 0.00 0.00 0.00 0.00 0.00 0.00 0.00 0.00 0.00 0.00 0.00 0.00 0.00 0.00 0.00 0.00 0.00 0.00 0.00 0.00 0.00 0.00 0.00 0.00 0.00 0.01 0.01 0.01 0.01 0.01 0.01 0.01 0.01 0.01 0.01
0.00 0.00 0.00 0.00 0.00 0.00 0.00 0.00 0.00 0.00 0.00 0.00 0.00 0.00 0.00 0.00 0.00 0.00 0.00 0.00 0.00 0.00 0.00 0.00 0.00 0.00 0.00 0.00 0.00 0.00 0.00 0.00 0.01 0.01 0.01 0.01 0.00 0.00 0.01 0.01 0.01 0.01 0.01 0.01
0.00 0.00 0.00 0.00 0.00 0.00 0.00 0.00 0.00 0.00 0.00 0.00 0.00 0.00 0.00 0.00 0.00 0.00 0.00 0.00 0.00 0.00 0.00 0.00 0.00 0.00 0.00 0.00 0.00 0.00 0.00 0.01 0.01 0.01 0.00 0.00 0.00 0.01 0.01 0.01 0.01 0.02 0.02 0.02
0.00 0.00 0.00 0.00 0.00 0.00 0.00 0.00 0.00 0.00 0.00 0.00 0.00 0.00 0.00 0.00 0.00 0.00 0.00 0.00 0.00 0.00 0.00 0.00 0.00 0.00 0.00 0.00 0.00 0.01 0.01 0.01 0.01 0.00 0.00 0.00 0.01 0.01 0.01 0.01 0.01 0.02 0.02 0.02
0.00 0.00 0.00 0.00 0.00 0.00 0.00 0.00 0.00 0.00 0.00 0.00 0.00 0.00 0.00 0.00 0.00 0.00 0.00 0.00 0.00 0.00 0.00 0.00 0.00 0.00 0.01 0.01 0.01 0.01 0.01 0.00 0.00 0.00 0.00 0.01 0.01 0.01 0.01 0.01 0.02 0.02 0.02 0.02
0.00 0.00 0.00 0.00 0.00 0.00 0.00 0.00 0.00 0.00 0.00 0.00 0.00 0.00 0.00 0.00 0.00 0.00 0.00 0.00 0.00 0.00 0.00 0.00 0.00 0.00 0.01 0.01 0.01 0.00 0.00 0.00 0.00 0.00 0.00 0.01 0.01 0.02 0.02 0.02 0.02 0.02 0.03 0.03
0.00 0.00 0.00 0.00 0.00 0.00 0.00 0.00 0.00 0.00 0.00 0.00 0.00 0.00 0.00 0.00 0.00 0.00 0.00 0.00 0.00 0.00 0.00 0.00 0.00 0.00 0.01 0.00 0.00 0.00 0.00 0.00 0.00 0.01 0.01 0.01 0.01 0.01 0.02 0.02 0.02 0.02 0.02 0.03
0.00 0.00 0.00 0.00 0.00 0.00 0.00 0.00 0.00 0.00 0.00 0.00 0.00 0.00 0.00 0.00 0.00 0.00 0.00 0.00 0.00 0.00 0.00 0.00 0.00 0.00 0.00 0.00 0.00 0.00 0.00 0.00 0.01 0.01 0.01 0.01 0.01 0.01 0.02 0.02 0.03 0.03 0.03 0.03
0.00 0.00 0.00 0.00 0.00 0.00 0.00 0.00 0.00 0.00 0.00 0.00 0.00 0.00 0.00 0.00 0.00 0.00 0.00 0.00 0.00 0.00 0.00 0.00 0.00 0.00 0.00 0.00 0.00 0.00 0.00 0.00 0.01 0.01 0.01 0.01 0.01 0.02 0.02 0.02 0.02 0.03 0.03 0.03
0.00 0.00 0.00 0.00 0.00 0.00 0.00 0.00 0.00 0.00 0.00 0.00 0.00 0.00 0.00 0.00 0.00 0.00 0.00 0.00 0.00 0.00 0.00 0.00 0.00 0.00 0.00 0.00 0.00 0.00 0.00 0.01 0.01 0.01 0.01 0.01 0.01 0.02 0.02 0.02 0.03 0.03 0.03 0.03
MSLP
1016.61 1016.86 1017.05 1017.16 1017.14 1017.00 1016.74 1016.37 1015.94 1015.49 1015.08 1014.77 1014.62 1014.65 1014.88 1015.30 1015.89 1016.58 1017.34 1018.11 1018.83 1019.47 1020.01 1020.45 1020.80 1021.07 1021.27 1021.43 1021.54 1021.59 1021.59 1021.50 1021.32 1021.04 1020.66 1020.18 1019.63 1019.04 1018.44 1017.86 1017.32 1016.82 1016.36 1015.92
1016.53 1016.65 1016.70 1016.67 1016.56 1016.36 1016.08 1015.73 1015.35 1014.98 1014.67 1014.47 1014.40 1014.51 1014.80 1015.26 1015.86 1016.56 1017.32 1018.08 1018.79 1019.43 1019.97 1020.40 1020.74 1021.00 1021.19 1021.31 1021.39 1021.41 1021.37 1021.25 1021.03 1020.71 1020.28 1019.75 1019.15 1018.50 1017.84 1017.19 1016.58 1016.03 1015.53 1015.08
1016.50 1016.46 1016.37 1016.21 1015.99 1015.73 1015.42 1015.09 1014.77 1014.49 1014.28 1014.19 1014.23 1014.43 1014.79 1015.29 1015.92 1016.64 1017.39 1018.14 1018.84 1019.45 1019.97 1020.37 1020.68 1020.89 1021.04 1021.11 1021.14 1021.11 1021.02 1020.85 1020.60 1020.24 1019.79 1019.23 1018.59 1017.91 1017.20 1016.50 1015.85 1015.24 1014.70 1014.21
1016.42 1016.26 1016.03 1015.76 1015.45 1015.13 1014.80 1014.50 1014.24 1014.06 1013.96 1013.98 1014.14 1014.43 1014.87 1015.44 1016.10 1016.83 1017.58 1018.30 1018.97 1019.54 1020.01 1020.36 1020.61 1020.76 1020.82 1020.83 1020.78 1020.69 1020.54 1020.33 1020.04 1019.67 1019.20 1018.64 1017.99 1017.30 1016.57 1015.85 1015.15 1014.51 1013.92 1013.39
1016.22 1015.96 1015.64 1015.28 1014.92 1014.57 1014.25 1013.99 1013.81 1013.73 1013.75 1013.89 1014.16 1014.56 1015.08 1015.70 1016.39 1017.12 1017.85 1018.55 1019.16 1019.68 1020.07 1020.35 1020.51 1020.57 1020.55 1020.46 1020.33 1020.16 1019.96 1019.70 1019.39 1019.01 1018.55 1018.00 1017.38 1016.70 1015.98 1015.25 1014.54 1013.86 1013.23 1012.65
1015.84 1015.53 1015.16 1014.77 1014.39 1014.05 1013.78 1013.59 1013.51 1013.54 1013.68 1013.94 1014.33 1014.82 1015.41 1016.07 1016.77 1017.49 1018.19 1018.83 1019.37 1019.81 1020.11 1020.29 1020.35 1020.31 1020.19 1020.01 1019.79 1019.55 1019.29 1019.00 1018.67 1018.30 1017.86 1017.35 1016.76 1016.12 1015.43 1014.72 1014.00 1013.30 1012.63 1011.99
1015.26 1014.96 1014.60 1014.23 1013.88 1013.60 1013.41 1013.32 1013.35 1013.49 1013.76 1014.14 1014.62 1015.19 1015.82 1016.50 1017.19 1017.88 1018.52 1019.08 1019.54 1019.88 1020.09 1020.16 1020.12 1019.98 1019.76 1019.50 1019.20 1018.89 1018.58 1018.26 1017.92 1017.56 1017.15 1016.68 1016.15 1015.55 1014.90 1014.22 1013.51 1012.80 1012.09 1011.41
1014.54 1014.28 1013.98 1013.68 1013.42 1013.24 1013.15 1013.18 1013.33 1013.60 1013.97 1014.45 1015.00 1015.62 1016.27 1016.94 1017.59 1018.21 1018.77 1019.24 1019.60 1019.83 1019.94 1019.92 1019.79 1019.56 1019.27 1018.93 1018.57 1018.21 1017.86 1017.52 1017.17 1016.82 1016.43 1016.01 1015.52 1014.98 1014.37 1013.72 1013.03 1012.31 1011.59 1010.86
1013.78 1013.60 1013.39 1013.19 1013.05 1012.98 1013.02 1013.17 1013.44 1013.82 1014.29 1014.84 1015.43 1016.06 1016.70 1017.32 1017.91 1018.44 1018.90 1019.26 1019.51 1019.65 1019.66 1019.56 1019.36 1019.07 1018.72 1018.34 1017.94 1017.55 1017.17 1016.80 1016.46 1016.10 1015.74 1015.33 1014.88 1014.38 1013.81 1013.19 1012.51 1011.80 1011.05 1010.29
1013.09 1013.00 1012.90 1012.82 1012.80 1012.86 1013.03 1013.30 1013.67 1014.13 1014.67 1015.25 1015.86 1016.46 1017.05 1017.60 1018.10 1018.52 1018.87 1019.12 1019.27 1019.31 1019.25 1019.09 1018.84 1018.53 1018.16 1017.75 1017.34 1016.93 1016.53 1016.16 1015.79 1015.43 1015.07 1014.67 1014.24 1013.75 1013.20 1012.60 1011.93 1011.22 1010.47 1009.69
1012.59 1012.60 1012.60 1012.63 1012.73 1012.90 1013.17 1013.53 1013.98 1014.49 1015.06 1015.64 1016.23 1016.78 1017.30 1017.75 1018.14 1018.45 1018.68 1018.83 1018.89 1018.86 1018.75 1018.55 1018.29 1017.96 1017.59 1017.20 1016.79 1016.38 1015.98 1015.58 1015.20 1014.83 1014.44 1014.03 1013.59 1013.10 1012.55 1011.95 1011.30 1010.59 1009.83 1009.03
1012.37 1012.44 1012.53 1012.65 1012.84 1013.09 1013.43 1013.85 1014.34 1014.87 1015.43 1015.99 1016.52 1017.01 1017.43 1017.79 1018.07 1018.27 1018.40 1018.45 1018.43 1018.34 1018.20 1017.99 1017.73 1017.42 1017.08 1016.70 1016.31 1015.91 1015.50 1015.10 1014.69 1014.29 1013.87 1013.43 1012.96 1012.45 1011.89 1011.29 1010.63 1009.92 1009.16 1008.35
1012.42 1012.54 1012.69 1012.88 1013.11 1013.42 1013.79 1014.23 1014.72 1015.24 1015.76 1016.27 1016.74 1017.15 1017.48 1017.74 1017.92 1018.02 1018.06 1018.03 1017.95 1017.83 1017.66 1017.45 1017.20 1016.91 1016.60 1016.25 1015.89 1015.50 1015.09 1014.67 1014.25 1013.80 1013.35 1012.87 1012.36 1011.83 1011.25 1010.63 1009.96 1009.25 1008.49 1007.69
1012.71 1012.87 1013.05 1013.26 1013.53 1013.85 1014.22 1014.65 1015.11 1015.59 1016.06 1016.51 1016.91 1017.23 1017.49 1017.66 1017.75 1017.77 1017.74 1017.65 1017.52 1017.35 1017.16 1016.95 1016.71 1016.45 1016.16 1015.83 1015.48 1015.11 1014.70 1014.28 1013.83 1013.36 1012.87 1012.35 1011.81 1011.25 1010.65 1010.02 1009.35 1008.64 1007.88 1007.08
1013.16 1013.34 1013.54 1013.76 1014.03 1014.34 1014.69 1015.08 1015.50 1015.92 1016.34 1016.72 1017.04 1017.30 1017.48 1017.58 1017.61 1017.56 1017.46 1017.32 1017.14 1016.94 1016.72 1016.49 1016.25 1015.99 1015.71 1015.40 1015.06 1014.69 1014.29 1013.85 1013.39 1012.91 1012.39 1011.86 1011.30 1010.72 1010.11 1009.47 1008.80 1008.09 1007.35 1006.56
1013.70 1013.89 1014.10 1014.33 1014.58 1014.86 1015.18 1015.52 1015.88 1016.25 1016.60 1016.91 1017.18 1017.37 1017.49 1017.54 1017.50 1017.40 1017.25 1017.05 1016.82 1016.57 1016.31 1016.05 1015.78 1015.50 1015.20 1014.89 1014.55 1014.19 1013.79 1013.36 1012.90 1012.41 1011.90 1011.36 1010.80 1010.22 1009.62 1008.98 1008.32 1007.62 1006.89 1006.13
1014.25 1014.46 1014.68 1014.90 1015.14 1015.39 1015.66 1015.95 1016.25 1016.55 1016.84 1017.10 1017.30 1017.45 1017.52 1017.51 1017.42 1017.27 1017.06 1016.80 1016.52 1016.21 1015.89 1015.57 1015.26 1014.94 1014.62 1014.28 1013.94 1013.57 1013.18 1012.76 1012.32 1011.85 1011.36 1010.84 1010.30 1009.74 1009.15 1008.53 1007.89 1007.21 1006.50 1005.76
1014.76 1015.00 1015.23 1015.46 1015.68 1015.90 1016.13 1016.36 1016.60 1016.84 1017.07 1017.26 1017.41 1017.49 1017.51 1017.46 1017.32 1017.12 1016.85 1016.53 1016.17 1015.80 1015.41 1015.03 1014.65 1014.28 1013.92 1013.56 1013.20 1012.84 1012.46 1012.06 1011.65 1011.21 1010.76 1010.27 1009.76 1009.23 1008.67 1008.08 1007.46 1006.81 1006.13 1005.42
1015.23 1015.51 1015.76 1015.98 1016.18 1016.37 1016.55 1016.73 1016.91 1017.08 1017.23 1017.36 1017.44 1017.47 1017.43 1017.32 1017.14 1016.88 1016.55 1016.17 1015.74 1015.30 1014.84 1014.39 1013.95 1013.53 1013.12 1012.74 1012.37 1012.01 1011.65 1011.28 1010.90 1010.51 1010.09 1009.65 1009.19 1008.69 1008.16 1007.60 1007.01 1006.39 1005.74 1005.06
1015.67 1015.97 1016.23 1016.45 1016.63 1016.78 1016.91 1017.02 1017.12 1017.22 1017.29 1017.34 1017.35 1017.32 1017.22 1017.05 1016.81 1016.49 1016.11 1015.67 1015.19 1014.68 1014.17 1013.66 1013.17 1012.70 1012.27 1011.87 1011.50 1011.15 1010.81 1010.48 1010.14 1009.78 1009.41 1009.01 1008.58 1008.12 1007.62 1007.08 1006.51 1005.92 1005.29 1004.66
1016.06 1016.38 1016.64 1016.84 1016.99 1017.09 1017.16 1017.20 1017.21 1017.22 1017.20 1017.17 1017.11 1016.99 1016.83 1016.60 1016.31 1015.94 1015.51 1015.03 1014.51 1013.96 1013.41 1012.87 1012.35 1011.87 1011.42 1011.02 1010.66 1010.32 1010.01 1009.71 1009.40 1009.08 1008.74 1008.37 1007.97 1007.52 1007.04 1006.52 1005.97 1005.39 1004.79 1004.19
1016.41 1016.72 1016.96 1017.13 1017.23 1017.27 1017.26 1017.21 1017.14 1017.05 1016.94 1016.82 1016.67 1016.48 1016.26 1015.97 1015.63 1015.23 1014.77 1014.27 1013.72 1013.17 1012.61 1012.06 1011.55 1011.07 1010.64 1010.25 1009.90 1009.59 1009.30 1009.03 1008.74 1008.45 1008.12 1007.76 1007.37 1006.93 1006.45 1005.94 1005.39 1004.83 1004.25 1003.68
1016.68 1016.96 1017.16 1017.28 1017.31 1017.27 1017.17 1017.04 1016.87 1016.69 1016.49 1016.29 1016.06 1015.81 1015.52 1015.20 1014.82 1014.40 1013.94 1013.43 1012.90 1012.36 1011.82 1011.30 1010.81 1010.36 1009.96 1009.60 1009.28 1008.99 1008.72 1008.46 1008.19 1007.89 1007.57 1007.21 1006.80 1006.36 1005.87 1005.35 1004.81 1004.26 1003.70 1003.15
1016.83 1017.06 1017.19 1017.24 1017.19 1017.07 1016.90 1016.68 1016.43 1016.16 1015.89 1015.61 1015.32 1015.01 1014.69 1014.34 1013.95 1013.53 1013.07 1012.59 1012.09 1011.58 1011.09 1010.61 1010.17 1009.76 1009.40 1009.07 1008.78 1008.51 1008.25 1007.99 1007.72 1007.41 1007.08 1006.70 1006.27 1005.81 1005.31 1004.79 1004.24 1003.70 1003.16 1002.63
1016.82 1016.98 1017.04 1017.00 1016.88 1016.69 1016.44 1016.15 1015.84 1015.51 1015.18 1014.85 1014.52 1014.18 1013.84 1013.47 1013.09 1012.68 1012.25 1011.80 1011.34 1010.89 1010.44 1010.02 1009.62 1009.26 1008.94 1008.64 1008.37 1008.11 1007.86 1007.59 1007.30 1006.98 1006.61 1006.21 1005.76 1005.28 1004.77 1004.23 1003.70 1003.16 1002.64 1002.14
1016.64 1016.72 1016.69 1016.59 1016.40 1016.15 1015.84 1015.51 1015.16 1014.80 1014.44 1014.09 1013.74 1013.39 1013.04 1012.68 1012.31 1011.92 1011.52 1011.11 1010.69 1010.28 1009.88 1009.51 1009.15 1008.83 1008.53 1008.26 1008.00 1007.74 1007.48 1007.19 1006.88 1006.53 1006.14 1005.71 1005.24 1004.74 1004.22 1003.69 1003.16 1002.64 1002.14 1001.68
1016.31 1016.29 1016.20 1016.03 1015.79 1015.50 1015.18 1014.82 1014.46 1014.10 1013.74 1013.39 1013.05 1012.70 1012.36 1012.01 1011.65 1011.28 1010.90 1010.51 1010.13 1009.75 1009.38 1009.03 1008.71 1008.41 1008.13 1007.86 1007.60 1007.33 1007.05 1006.75 1006.41 1006.03 1005.61 1005.16 1004.67 1004.16 1003.64 1003.11 1002.60 1002.11 1001.64 1001.21
Thickness
5624 5619 5620 5622 5620 5611 5614 5625 5624 5635 5636 5640 5635 5627 5621 5613 5603 5594 5586 5578 5571 5565 5559 5553 5547 5541 5536 5531 5526 5520 5516 5512 5508 5504 5500 5495 5491 5486 5481 5476 5470 5464 5457 5451
5609 5604 5605 5607 5616 5615 5613 5618 5621 5624 5628 5635 5625 5617 5610 5603 5593 5585 5577 5569 5562 5554 5548 5543 5537 5531 5526 5520 5515 5509 5505 5501 5497 5492 5488 5483 5478 5473 5468 5462 5456 5449 5441 5434
5606 5594 5595 5606 5624 5619 5615 5618 5617 5616 5624 5618 5607 5602 5599 5592 5584 5577 5570 5561 5552 5546 5539 5533 5527 5521 5516 5510 5504 5499 5495 5491 5486 5481 5475 5470 5465 5460 5455 5449 5443 5435 5427 5419
5595 5587 5584 5624 5619 5616 5614 5616 5613 5611 5608 5601 5596 5589 5584 5581 5575 5567 5558 5549 5542 5535 5528 5521 5515 5509 5504 5499 5494 5489 5485 5480 5475 5469 5463 5457 5452 5447 5441 5435 5429 5421 5413 5404
5583 5586 5598 5613 5609 5604 5601 5608 5609 5602 5597 5587 5579 5576 5572 5564 5560 5554 5546 5538 5531 5523 5516 5510 5504 5499 5493 5488 5484 5479 5474 5470 5464 5457 5451 5445 5439 5434 5428 5421 5414 5406 5397 5388
5573 5572 5580 5609 5600 5595 5593 5596 5601 5592 5585 5575 5569 5569 5567 5552 5544 5538 5530 5523 5516 5510 5504 5498 5494 5488 5482 5478 5474 5469 5464 5458 5451 5445 5438 5432 5426 5419 5412 5404 5398 5390 5383 5374
5574 5571 5589 5598 5585 5582 5581 5594 5585 5580 5575 5567 5564 5562 5550 5538 5530 5523 5516 5509 5503 5498 5493 5488 5482 5476 5471 5467 5463 5459 5452 5446 5439 5432 5425 5419 5412 5404 5396 5389 5383 5376 5370 5363
5570 5566 5576 5581 5574 5578 5584 5576 5572 5567 5562 5556 5549 5537 5529 5523 5515 5508 5502 5496 5491 5486 5482 5476 5470 5464 5461 5458 5453 5447 5441 5434 5428 5420 5412 5404 5397 5390 5381 5373 5367 5361 5356 5352
5576 5581 5576 5572 5573 5569 5565 5563 5559 5555 5548 5541 5532 5524 5516 5509 5503 5496 5490 5485 5479 5475 5470 5465 5460 5454 5450 5447 5441 5435 5428 5422 5416 5408 5399 5390 5382 5375 5367 5358 5350 5345 5341 5339
5562 5568 5564 5560 5558 5553 5551 5549 5545 5540 5533 5527 5520 5511 5503 5496 5490 5484 5479 5474 5468 5462 5459 5456 5451 5444 5439 5434 5428 5422 5416 5411 5403 5396 5388 5379 5369 5360 5351 5343 5336 5332 5328 5327
5555 5556 5551 5549 5546 5543 5537 5532 5526 5521 5516 5511 5504 5497 5491 5484 5478 5473 5467 5461 5456 5451 5448 5444 5439 5433 5427 5422 5415 5410 5404 5397 5390 5382 5375 5368 5359 5348 5339 5332 5321 5318 5318 5317
5554 5552 5547 5544 5537 5530 5524 5518 5513 5506 5499 5493 5489 5484 5477 5472 5467 5461 5455 5450 5444 5440 5436 5432 5427 5422 5415 5408 5401 5395 5389 5383 5376 5368 5360 5352 5347 5342 5334 5323 5319 5313 5310 5309
5539 5531 5529 5524 5519 5514 5511 5504 5498 5493 5487 5480 5475 5470 5465 5460 5454 5448 5443 5438 5433 5429 5424 5419 5415 5409 5403 5396 5387 5380 5373 5367 5360 5352 5345 5339 5332 5327 5328 5325 5317 5312 5310 5308
5515 5513 5510 5507 5503 5498 5494 5488 5482 5476 5472 5467 5462 5456 5451 5446 5441 5436 5431 5427 5421 5416 5412 5407 5402 5397 5390 5382 5374 5366 5359 5352 5344 5338 5331 5325 5319 5315 5313 5313 5314 5314 5310 5307
5501 5500 5499 5492 5486 5480 5476 5471 5467 5462 5457 5452 5447 5442 5437 5432 5428 5424 5420 5414 5408 5404 5399 5394 5389 5384 5376 5368 5360 5353 5346 5339 5331 5325 5319 5313 5310 5306 5304 5303 5304 5306 5307 5306
5484 5482 5479 5476 5472 5466 5462 5459 5455 5450 5445 5440 5435 5430 5425 5420 5415 5411 5406 5401 5395 5392 5387 5381 5376 5370 5361 5353 5346 5340 5334 5326 5317 5312 5308 5305 5301 5299 5297 5297 5297 5298 5299 5299
5471 5469 5466 5463 5459 5454 5450 5447 5443 5438 5432 5427 5423 5418 5412 5407 5404 5401 5397 5390 5383 5378 5371 5365 5361 5355 5346 5338 5332 5327 5321 5316 5308 5302 5299 5296 5293 5292 5291 5291 5291 5292 5292 5292
5463 5460 5457 5453 5448 5442 5437 5432 5428 5423 5418 5414 5409 5403 5399 5396 5393 5389 5383 5377 5371 5366 5360 5353 5347 5340 5333 5325 5318 5313 5308 5304 5299 5294 5291 5289 5288 5287 5286 5285 5286 5286 5288 5289
5447 5444 5440 5436 5432 5428 5424 5419 5414 5410 5405 5400 5395 5391 5387 5382 5377 5373 5368 5362 5356 5354 5351 5342 5333 5326 5320 5313 5306 5301 5297 5293 5290 5287 5285 5284 5283 5282 5281 5281 5281 5282 5283 5284
5431 5428 5425 5420 5416 5412 5409 5405 5401 5397 5393 5387 5382 5378 5374 5370 5364 5359 5354 5349 5343 5337 5333 5326 5319 5313 5308 5302 5295 5290 5287 5284 5282 5281 5280 5279 5278 5278 5278 5277 5277 5278 5279 5280
5416 5413 5410 5406 5403 5400 5396 5392 5388 5384 5379 5373 5368 5364 5360 5356 5350 5344 5338 5338 5336 5325 5318 5312 5306 5301 5295 5290 5286 5283 5280 5277 5276 5275 5274 5274 5274 5274 5274 5274 5274 5275 5276 5278
5403 5400 5397 5394 5390 5387 5383 5379 5374 5370 5365 5360 5355 5349 5344 5341 5337 5333 5327 5320 5318 5311 5304 5299 5294 5288 5283 5280 5278 5276 5273 5271 5270 5269 5269 5269 5269 5269 5270 5271 5271 5273 5273 5274
5391 5388 5384 5381 5378 5374 5370 5365 5361 5356 5352 5347 5342 5336 5331 5328 5322 5316 5316 5312 5302 5296 5290 5286 5281 5277 5274 5271 5270 5268 5266 5265 5264 5264 5264 5264 5265 5265 5267 5268 5268 5269 5270 5272
5378 5375 5371 5367 5362 5358 5356 5355 5349 5344 5338 5333 5328 5320 5313 5310 5309 5303 5297 5294 5287 5281 5277 5274 5270 5267 5264 5263 5262 5260 5259 5259 5259 5259 5260 5261 5262 5263 5263 5264 5265 5267 5268 5270
5365 5360 5356 5351 5349 5348 5346 5341 5335 5330 5325 5322 5317 5309 5300 5294 5290 5288 5283 5279 5274 5269 5266 5264 5261 5258 5256 5255 5254 5254 5254 5254 5254 5255 5257 5258 5259 5259 5260 5261 5263 5265 5267 5268
5351 5349 5345 5340 5336 5333 5329 5325 5321 5317 5312 5309 5305 5297 5289 5282 5276 5272 5269 5265 5262 5259 5256 5255 5253 5251 5250 5249 5249 5248 5249 5250 5251 5251 5252 5253 5255 5257 5258 5260 5261 5263 5265 5267
5337 5334 5330 5327 5323 5317 5312 5307 5303 5300 5294 5289 5286 5282 5275 5269 5264 5260 5257 5254 5252 5250 5249 5247 5245 5244 5243 5243 5244 5244 5245 5246 5247 5248 5250 5251 5253 5254 5256 5258 5260 5262 5264 5267